レモン-リード彗星

P/2018 C1 ( Lemmon-Read )

English version
Home page
Updated on May 21, 2018

---------------------------------------------------------------------

・ プロフィール

発見日 2018年2月4日、2月9日
発見光度 19.1等、19.1等
発見者 Mt. Lemmon Survey, Mike T. Read (Spacewatch, Kitt Peak)

・ 写真集

・ 軌道要素

Epoch 2018 Feb. 11.0 TT = JDT 2458160.5
T 2018 Feb. 25.46222 TT                                 MPCW
q   2.5958516            (2000.0)            P               Q
n   0.07486243     Peri.  234.29380     -0.81336345     -0.57483304
a   5.5756235      Node   270.45416     +0.55847438     -0.72844397
e   0.5344285      Incl.    5.13392     +0.16293024     -0.37274168
P  13.17
From 94 observations 2018 Jan. 16-Mar. 21, mean residual 0".4.

・ 光度変化

        m1 = 13.5 + 5 logΔ + 10.0 log r

---------------------------------------------------------------------

軌道要素はM.P.E.C. 2018-F152に掲載されたものです。
光度グラフはComet for Windowsで作成したものです。

---------------------------------------------------------------------

Copyright(C) Seiichi Yoshida (comet@aerith.net). All rights reserved.